Location: ?????????
(41.1143°N, 22.7905°E)
Time: 05:45:05
(UTC+00:00)

COSMO-SKYMED 1 - Pass Details

Date: 22 March 2026
Orbit: 576 x 578 km, 97.9° (Epoch: 15 April)

Event Time Altitude Azimuth Distance (km) Brightness Sun altitude
Rises 17:22:50 0° 6° (N) 2,798 6.0 -8.3°
Reaches altitude 10° 17:25:02 10° 1° (N) 1,895 5.2 -8.7°
Maximum altitude 17:29:00 49° 287° (WNW) 749 3.5 -9.4°
Drops below altitude 10° 17:32:56 10° 212° (SSW) 1,880 5.3 -10.2°
Sets 17:35:06 0° 207° (SSW) 2,774 6.1 -10.6°
